Miscellaneous Local Product
Issued by NWS North Platte, NE

Home | Current Version | Previous Version | Text Only | Print | Product List | Glossary On
Versions: 1 2 3 4 5 6 7 8 9 10 11 12 13 14 15 16 17 18 19 20 21 22 23 24 25 26 27 28 29 30 31 32 33 34 35 36 37 38 39 40 41 42 43 44 45 46 47 48 49 50
000
AXUS43 KLBF 301310
MISLBF


WESTERN AND NORTH CENTRAL NEBRASKA HOURLY WEATHER ROUNDUP
NATIONAL WEATHER SERVICE NORTH PLATTE NE
800 AM CDT THU JUN 30 2016

NOTE: "FAIR" INDICATES FEW OR NO CLOUDS BELOW 12,000 FEET WITH NO
SIGNIFICANT WEATHER AND/OR OBSTRUCTIONS TO VISIBILITY.

NOTE: STATIONS NOT REPORTING VARIABLES SUCH AS SKY/WEATHER OR
PRESSURE ARE PROVIDED BY RAWS AND APRS NETWORKS AND ARE NOT UNDER
NATIONAL WEATHER SERVICE QUALITY CONTROL.

...OBSERVATIONS IN AND NEAR THE EASTERN PANHANDLE OF NEBRASKA...

CITY           SKY/WX    TMP DP  RH WIND       PRES   REMARKS
PINE RIDGE     CLOUDY    59  56  89 NW3       30.16R
CHADRON        MOSUNNY   59  57  93 SW5       30.17R
ALLIANCE       SUNNY     60  58  92 CALM      30.17R
SIDNEY         SUNNY     61  55  81 N6        30.19R
CRESCENT LAKE    N/A     63  59  87 NW5         N/A
$$

...OBSERVATIONS IN NORTHERN NEBRASKA AND FAR SOUTHERN SOUTH DAKOTA...

CITY           SKY/WX    TMP DP  RH WIND       PRES   REMARKS
WINNER         FAIR      64  59  83 NW5       30.07R
VALENTINE      SUNNY     63  58  83 NW7       30.10S
THEDFORD       MOSUNNY   64  60  87 N7        30.12R
AINSWORTH      SUNNY     63  58  85 NW9       30.09R
O`NEILL        SUNNY     66  60  81 NW9       30.03R
ORD            CLOUDY    64  60  87 N6        30.03S
BROKEN BOW     CLOUDY    64  59  83 N17       30.05R
VALENTINE NWR    N/A     61  59  92 N6          N/A
BUTTE            N/A     64  58  80 NW8G16      N/A
HALSEY           N/A     62  59  89 NW7         N/A
CHAMBERS         N/A     72  61  67 NW3         N/A
EWING            N/A     67  62  83 W3          N/A
$$

...OBSERVATIONS IN SOUTHWEST NEBRASKA AND FAR NORTHEAST COLORADO...

CITY           SKY/WX    TMP DP  RH WIND       PRES   REMARKS
WRAY           FAIR     N/A N/A N/A SE6       30.14S
HOLYOKE        FAIR      66  61  82 S10       30.13F
IMPERIAL       MOSUNNY   65  59  81 S6        30.10F
OGALLALA       SUNNY     65  58  77 NW5       30.12R
NORTH PLATTE   CLOUDY    67  62  84 NW7       30.06S
MCCOOK         CLOUDY    65  60  84 W3        30.07R
LEXINGTON      CLOUDY    67  59  75 W7        30.00F
STAPLETON        N/A     63  61  92 CALM        N/A
GOTHENBURG       N/A     65  55  70 N5          N/A
CALLAWAY         N/A     64  59  85 SE3         N/A
$$

...OBSERVATIONS IN CENTRAL LINCOLN COUNTY AREA...

CITY           SKY/WX    TMP DP  RH WIND       PRES   REMARKS
N.P. AIRPORT   CLOUDY    67  62  84 NW7       30.06S
N.P. DOWNTOWN    N/A     65  63  92 NW5         N/A
N.P. HILLCREST   N/A     64  61  91 NW9         N/A
$$

...SOME OBSERVATIONS FROM AROUND THE REGION...

CITY           SKY/WX    TMP DP  RH WIND       PRES   REMARKS
DENVER         CLOUDY    60  53  77 NW10      30.22R
LARAMIE        CLOUDY    53  47  79 CALM      30.33R
CHEYENNE       CLOUDY    57  51  80 NW5       30.27S
SCOTTSBLUFF    CLOUDY    63  58  83 NW5       30.18R
RAPID CITY     PTSUNNY   66  53  63 N10       30.16R
BISMARCK       CLOUDY    60  57  89 NE16      30.17R
PIERRE         SUNNY     64  61  90 N6        30.07R
SIOUX FALLS    CLOUDY    71  66  84 NW6       29.97S
OMAHA          PTSUNNY   74  69  85 CALM      29.95R
GRAND ISLAND   CLOUDY    67  61  81 NW3       30.03R
KANSAS CITY    CLOUDY    76  64  66 SW5       29.95R
WICHITA        CLOUDY    75  68  78 CALM      30.00R
OKLAHOMA CITY  PTSUNNY   73  68  84 S8        30.03F
DALLAS         MOSUNNY   81  70  69 CALM      30.02R
AMARILLO       CLOUDY    71  58  63 W7        30.14F
DODGE CITY     SUNNY     67  61  81 NE8       30.05S
HAYS           CLOUDY    68  59  73 NW5       29.98F
GOODLAND       CLOUDY    65  58  78 SE8       30.13S
$$




USA.gov is the U.S. government's official web portal to all federal, state and local government web resources and services.